Starlink 35355

operational
NORAD ID: 66448 Int'l Des: 2025-259 Owner: SPXS Country: US Constellation: starlink
NOTLE

About Starlink 35355

Description loading...

Live Position

Loading 3D Globe...

Upcoming Passes

Altitude History

Altitude vs Time

uPlot chart will show altitude changes over time

Two-Line Element Set

1 66448U 25259AC 26047.41588582 .00031053 00000-0 11333-2 0 9996
2 66448 43.0089 34.8423 0003221 284.6641 75.3854 15.27576384 16239
Epoch: Feb 16, 2026 • Age: 13 hours

Current Status

Altitude 484.3 km
Velocity 7.63 km/s
Sub-Earth Point 22.51°N, 50.99°E
Launch Date Nov 11, 2025
Age 0.2 years
Type internet

Technical Details

Classification Payload
Mass 575.00 kg
Dry Mass 530.00 kg
Total Mass 575.00 kg
Length 0.30 m
Diameter 4.10 m
Span 29.00 m
Shape Box + pan
Manufacturer SPXS
Bus Type Starlink V2MO
Phase Status In Orbit
Owner/State SPXS/US

Large Constellations

Loading constellations...